TimeCDT,TemperatureF,Dew PointF,Humidity,Sea Level PressureIn,VisibilityMPH,Wind Direction,Wind SpeedMPH,Gust SpeedMPH,PrecipitationIn,Events,Conditions,WindDirDegrees,DateUTC
12:53 AM,71.1,55.0,57,29.80,10.0,SSE,18.4,-,N/A,,Clear,150,2011-10-06 05:53:00
1:53 AM,70.0,55.0,59,29.78,10.0,SSE,16.1,23.0,N/A,,Clear,150,2011-10-06 06:53:00
2:53 AM,69.1,55.0,61,29.76,10.0,SSE,19.6,27.6,N/A,,Clear,160,2011-10-06 07:53:00
3:53 AM,68.0,55.0,63,29.75,10.0,SSE,16.1,-,N/A,,Clear,160,2011-10-06 08:53:00
4:53 AM,68.0,55.0,63,29.74,10.0,SSE,17.3,-,N/A,,Clear,160,2011-10-06 09:53:00
5:53 AM,66.0,55.0,68,29.75,10.0,South,15.0,23.0,N/A,,Clear,170,2011-10-06 10:53:00
6:53 AM,64.9,55.9,73,29.75,10.0,SSE,13.8,-,N/A,,Clear,160,2011-10-06 11:53:00
7:53 AM,64.0,57.0,78,29.77,10.0,SSE,17.3,-,N/A,,Clear,150,2011-10-06 12:53:00
8:53 AM,66.0,57.9,75,29.78,10.0,SSE,17.3,-,N/A,,Clear,160,2011-10-06 13:53:00
9:53 AM,69.1,59.0,70,29.79,10.0,SSE,18.4,26.5,N/A,,Clear,150,2011-10-06 14:53:00
10:53 AM,73.0,59.0,61,29.78,10.0,SSE,21.9,29.9,N/A,,Clear,160,2011-10-06 15:53:00
11:53 AM,77.0,57.9,52,29.78,10.0,SSE,20.7,31.1,N/A,,Clear,150,2011-10-06 16:53:00
12:53 PM,82.9,57.0,41,29.74,10.0,SSE,25.3,34.5,N/A,,Clear,160,2011-10-06 17:53:00
1:53 PM,86.0,55.0,35,29.72,10.0,SSE,20.7,-,N/A,,Clear,160,2011-10-06 18:53:00
2:53 PM,90.0,50.0,25,29.68,10.0,South,20.7,26.5,N/A,,Clear,170,2011-10-06 19:53:00
3:53 PM,90.0,51.1,26,29.66,10.0,SE,18.4,29.9,N/A,,Clear,140,2011-10-06 20:53:00
4:53 PM,90.0,52.0,27,29.65,10.0,SSE,24.2,34.5,N/A,,Clear,160,2011-10-06 21:53:00
5:53 PM,88.0,54.0,31,29.65,10.0,SSE,18.4,29.9,N/A,,Clear,160,2011-10-06 22:53:00
6:53 PM,84.0,57.9,41,29.65,10.0,SE,23.0,34.5,N/A,,Clear,140,2011-10-06 23:53:00
7:53 PM,81.0,57.9,45,29.67,10.0,SE,18.4,29.9,N/A,,Clear,140,2011-10-07 00:53:00
8:53 PM,79.0,59.0,50,29.68,10.0,SE,23.0,39.1,N/A,,Clear,140,2011-10-07 01:53:00
9:53 PM,78.1,57.9,50,29.69,10.0,SE,23.0,33.4,N/A,,Clear,140,2011-10-07 02:53:00
10:53 PM,77.0,57.9,52,29.71,10.0,SSE,23.0,31.1,N/A,,Clear,150,2011-10-07 03:53:00
11:53 PM,75.9,57.9,54,29.71,10.0,SSE,17.3,26.5,N/A,,Clear,150,2011-10-07 04:53:00